(°C)
-1°
-2°
-3°
-3°
(°C)
-5°
-5°
-6°
-7°
-8°
-9°
-9°
D
D
D
D
D
D
D
(km/saat)
18-27
17-26
17-26
16-25
16-26
15-25
14-23
(mm)
0
0
0
0
0
0
0
(%)
0
0
0
0
0
0
0

Güneşin açısı

/ -22.6°
sun-icon
UV 0
09:22
17:29
Artan Yarımay (71°)
13:57
23:19

51.15°K 51.54°D (UARR) için METAR

Zaman Koşullar Sıcaklık/
Çiy noktası
Rüzgar Görünürlük Hava Bulutlar Basınç Değiştir Ham
VFR 1°C / -4°C 110º 8kt >10km - Clouds and Visibility OK 1021 No Significant change UARR 091430Z 11004MPS CAVOK 01/M04 Q1021 NOSIG RMK QFE762/1016
VFR 1°C / -4°C 120º 6kt >10km - Clouds and Visibility OK 1021 No Significant change UARR 091400Z 12003MPS CAVOK 01/M04 Q1021 NOSIG RMK QFE762/1016
VFR 1°C / -4°C 110º 8kt >10km - Clouds and Visibility OK 1021 No Significant change UARR 091330Z 11004MPS CAVOK 01/M04 Q1021 NOSIG RMK QFE762/1016
VFR 1°C / -3°C 90º 6kt >10km - Clouds and Visibility OK 1021 No Significant change UARR 091300Z 09003MPS CAVOK 01/M03 Q1021 NOSIG RMK QFE762/1016
VFR 1°C / -3°C 90º 6kt >10km - Clouds and Visibility OK 1021 No Significant change UARR 091230Z 09003MPS CAVOK 01/M03 Q1021 NOSIG RMK QFE762/1016
VFR 2°C / -4°C 120º 8kt >10km - Clouds and Visibility OK 1021 No Significant change UARR 091200Z 12004MPS CAVOK 02/M04 Q1021 NOSIG RMK QFE762/1017
VFR 1°C / -3°C 110º 8kt >10km - Clouds and Visibility OK 1021 No Significant change UARR 091130Z 11004MPS CAVOK 01/M03 Q1021 NOSIG RMK QFE762/1017
VFR 1°C / -3°C 100º 10kt >10km - Clouds and Visibility OK 1021 No Significant change UARR 091100Z 10005MPS CAVOK 01/M03 Q1021 NOSIG RMK QFE763/1017
VFR 2°C / -3°C 110º 12kt >10km - Clouds and Visibility OK 1022 No Significant change UARR 091030Z 11006MPS CAVOK 02/M03 Q1022 NOSIG RMK QFE763/1017
VFR 1°C / -3°C 120º 8kt >10km - Clouds and Visibility OK 1022 No Significant change UARR 091000Z 12004MPS CAVOK 01/M03 Q1022 NOSIG RMK QFE763/1018
VFR 1°C / -4°C 110º 12kt >10km - Clouds and Visibility OK 1022 No Significant change UARR 090930Z 11006MPS CAVOK 01/M04 Q1022 NOSIG RMK QFE763/1018
VFR 1°C / -3°C 100º 14kt >10km - Clouds and Visibility OK 1022 No Significant change UARR 090900Z 10007MPS CAVOK 01/M03 Q1022 NOSIG RMK QFE763/1018
VFR 1°C / -3°C 100º 12kt >10km - Clouds and Visibility OK 1023 No Significant change UARR 090830Z 10006MPS CAVOK 01/M03 Q1023 NOSIG RMK QFE764/1018
VFR 0°C / -4°C 110º 12kt >10km - Clouds and Visibility OK 1023 No Significant change UARR 090800Z 11006MPS CAVOK M00/M04 Q1023 NOSIG RMK QFE764/1019
VFR 0°C / -3°C 120º 14kt >10km - Clouds and Visibility OK 1024 No Significant change UARR 090730Z 12007MPS CAVOK 00/M03 Q1024 NOSIG RMK QFE764/1019
VFR 0°C / -4°C 110º 16kt >10km - Clouds and Visibility OK 1024 No Significant change UARR 090700Z 11008MPS CAVOK M00/M04 Q1024 NOSIG RMK QFE765/1020
VFR 0°C / -4°C 110º 14kt >10km - Clouds and Visibility OK 1025 No Significant change UARR 090630Z 11007MPS CAVOK M00/M04 Q1025 NOSIG RMK QFE765/1020
VFR -1°C / -4°C 120º 14kt >10km - Clouds and Visibility OK 1025 No Significant change UARR 090600Z 12007MPS CAVOK M01/M04 Q1025 NOSIG RMK QFE765/1020
VFR -2°C / -4°C 120º 16kt >10km - Clouds and Visibility OK 1025 No Significant change UARR 090530Z 12008MPS CAVOK M02/M04 Q1025 NOSIG RMK QFE765/1020
VFR -2°C / -5°C 120º 14kt >10km - Clouds and Visibility OK 1025 No Significant change UARR 090500Z 12007MPS CAVOK M02/M05 Q1025 NOSIG RMK QFE765/1020
VFR -2°C / -5°C 110º 12kt >10km - Clouds and Visibility OK 1025 No Significant change UARR 090430Z 11006MPS CAVOK M02/M05 Q1025 NOSIG RMK QFE765/1020
VFR -2°C / -5°C 110º 14kt >10km - Clouds and Visibility OK 1025 No Significant change UARR 090400Z 11007MPS CAVOK M02/M05 Q1025 NOSIG RMK QFE765/1020
VFR -3°C / -6°C 110º 14kt >10km - Clouds and Visibility OK 1025 No Significant change UARR 090330Z 11007MPS CAVOK M03/M06 Q1025 NOSIG RMK QFE765/1021
VFR -3°C / -6°C 110º 14kt >10km - Clouds and Visibility OK 1025 No Significant change UARR 090300Z 11007MPS CAVOK M03/M06 Q1025 NOSIG RMK QFE765/1021

VFR

1°C / -4°C

[Daha fazla]
Rüzgar 110º 8kt
Görünürlük >10km
Hava -
Bulutlar Clouds and Visibility OK
Basınç 1021
Değiştir No Significant change
Ham UARR 091430Z 11004MPS CAVOK 01/M04 Q1021 NOSIG RMK QFE762/1016

VFR

1°C / -4°C

[Daha fazla]
Rüzgar 120º 6kt
Görünürlük >10km
Hava -
Bulutlar Clouds and Visibility OK
Basınç 1021
Değiştir No Significant change
Ham UARR 091400Z 12003MPS CAVOK 01/M04 Q1021 NOSIG RMK QFE762/1016

VFR

1°C / -4°C

[Daha fazla]
Rüzgar 110º 8kt
Görünürlük >10km
Hava -
Bulutlar Clouds and Visibility OK
Basınç 1021
Değiştir No Significant change
Ham UARR 091330Z 11004MPS CAVOK 01/M04 Q1021 NOSIG RMK QFE762/1016

VFR

1°C / -3°C

[Daha fazla]
Rüzgar 90º 6kt
Görünürlük >10km
Hava -
Bulutlar Clouds and Visibility OK
Basınç 1021
Değiştir No Significant change
Ham UARR 091300Z 09003MPS CAVOK 01/M03 Q1021 NOSIG RMK QFE762/1016

VFR

1°C / -3°C

[Daha fazla]
Rüzgar 90º 6kt
Görünürlük >10km
Hava -
Bulutlar Clouds and Visibility OK
Basınç 1021
Değiştir No Significant change
Ham UARR 091230Z 09003MPS CAVOK 01/M03 Q1021 NOSIG RMK QFE762/1016

VFR

2°C / -4°C

[Daha fazla]
Rüzgar 120º 8kt
Görünürlük >10km
Hava -
Bulutlar Clouds and Visibility OK
Basınç 1021
Değiştir No Significant change
Ham UARR 091200Z 12004MPS CAVOK 02/M04 Q1021 NOSIG RMK QFE762/1017

VFR

1°C / -3°C

[Daha fazla]
Rüzgar 110º 8kt
Görünürlük >10km
Hava -
Bulutlar Clouds and Visibility OK
Basınç 1021
Değiştir No Significant change
Ham UARR 091130Z 11004MPS CAVOK 01/M03 Q1021 NOSIG RMK QFE762/1017

VFR

1°C / -3°C

[Daha fazla]
Rüzgar 100º 10kt
Görünürlük >10km
Hava -
Bulutlar Clouds and Visibility OK
Basınç 1021
Değiştir No Significant change
Ham UARR 091100Z 10005MPS CAVOK 01/M03 Q1021 NOSIG RMK QFE763/1017

VFR

2°C / -3°C

[Daha fazla]
Rüzgar 110º 12kt
Görünürlük >10km
Hava -
Bulutlar Clouds and Visibility OK
Basınç 1022
Değiştir No Significant change
Ham UARR 091030Z 11006MPS CAVOK 02/M03 Q1022 NOSIG RMK QFE763/1017

VFR

1°C / -3°C

[Daha fazla]
Rüzgar 120º 8kt
Görünürlük >10km
Hava -
Bulutlar Clouds and Visibility OK
Basınç 1022
Değiştir No Significant change
Ham UARR 091000Z 12004MPS CAVOK 01/M03 Q1022 NOSIG RMK QFE763/1018

VFR

1°C / -4°C

[Daha fazla]
Rüzgar 110º 12kt
Görünürlük >10km
Hava -
Bulutlar Clouds and Visibility OK
Basınç 1022
Değiştir No Significant change
Ham UARR 090930Z 11006MPS CAVOK 01/M04 Q1022 NOSIG RMK QFE763/1018

VFR

1°C / -3°C

[Daha fazla]
Rüzgar 100º 14kt
Görünürlük >10km
Hava -
Bulutlar Clouds and Visibility OK
Basınç 1022
Değiştir No Significant change
Ham UARR 090900Z 10007MPS CAVOK 01/M03 Q1022 NOSIG RMK QFE763/1018

VFR

1°C / -3°C

[Daha fazla]
Rüzgar 100º 12kt
Görünürlük >10km
Hava -
Bulutlar Clouds and Visibility OK
Basınç 1023
Değiştir No Significant change
Ham UARR 090830Z 10006MPS CAVOK 01/M03 Q1023 NOSIG RMK QFE764/1018

VFR

0°C / -4°C

[Daha fazla]
Rüzgar 110º 12kt
Görünürlük >10km
Hava -
Bulutlar Clouds and Visibility OK
Basınç 1023
Değiştir No Significant change
Ham UARR 090800Z 11006MPS CAVOK M00/M04 Q1023 NOSIG RMK QFE764/1019

VFR

0°C / -3°C

[Daha fazla]
Rüzgar 120º 14kt
Görünürlük >10km
Hava -
Bulutlar Clouds and Visibility OK
Basınç 1024
Değiştir No Significant change
Ham UARR 090730Z 12007MPS CAVOK 00/M03 Q1024 NOSIG RMK QFE764/1019

VFR

0°C / -4°C

[Daha fazla]
Rüzgar 110º 16kt
Görünürlük >10km
Hava -
Bulutlar Clouds and Visibility OK
Basınç 1024
Değiştir No Significant change
Ham UARR 090700Z 11008MPS CAVOK M00/M04 Q1024 NOSIG RMK QFE765/1020

VFR

0°C / -4°C

[Daha fazla]
Rüzgar 110º 14kt
Görünürlük >10km
Hava -
Bulutlar Clouds and Visibility OK
Basınç 1025
Değiştir No Significant change
Ham UARR 090630Z 11007MPS CAVOK M00/M04 Q1025 NOSIG RMK QFE765/1020

VFR

-1°C / -4°C

[Daha fazla]
Rüzgar 120º 14kt
Görünürlük >10km
Hava -
Bulutlar Clouds and Visibility OK
Basınç 1025
Değiştir No Significant change
Ham UARR 090600Z 12007MPS CAVOK M01/M04 Q1025 NOSIG RMK QFE765/1020

VFR

-2°C / -4°C

[Daha fazla]
Rüzgar 120º 16kt
Görünürlük >10km
Hava -
Bulutlar Clouds and Visibility OK
Basınç 1025
Değiştir No Significant change
Ham UARR 090530Z 12008MPS CAVOK M02/M04 Q1025 NOSIG RMK QFE765/1020

VFR

-2°C / -5°C

[Daha fazla]
Rüzgar 120º 14kt
Görünürlük >10km
Hava -
Bulutlar Clouds and Visibility OK
Basınç 1025
Değiştir No Significant change
Ham UARR 090500Z 12007MPS CAVOK M02/M05 Q1025 NOSIG RMK QFE765/1020

VFR

-2°C / -5°C

[Daha fazla]
Rüzgar 110º 12kt
Görünürlük >10km
Hava -
Bulutlar Clouds and Visibility OK
Basınç 1025
Değiştir No Significant change
Ham UARR 090430Z 11006MPS CAVOK M02/M05 Q1025 NOSIG RMK QFE765/1020

VFR

-2°C / -5°C

[Daha fazla]
Rüzgar 110º 14kt
Görünürlük >10km
Hava -
Bulutlar Clouds and Visibility OK
Basınç 1025
Değiştir No Significant change
Ham UARR 090400Z 11007MPS CAVOK M02/M05 Q1025 NOSIG RMK QFE765/1020

VFR

-3°C / -6°C

[Daha fazla]
Rüzgar 110º 14kt
Görünürlük >10km
Hava -
Bulutlar Clouds and Visibility OK
Basınç 1025
Değiştir No Significant change
Ham UARR 090330Z 11007MPS CAVOK M03/M06 Q1025 NOSIG RMK QFE765/1021

VFR

-3°C / -6°C

[Daha fazla]
Rüzgar 110º 14kt
Görünürlük >10km
Hava -
Bulutlar Clouds and Visibility OK
Basınç 1025
Değiştir No Significant change
Ham UARR 090300Z 11007MPS CAVOK M03/M06 Q1025 NOSIG RMK QFE765/1021

51.15°K 51.54°D (UARR) için TAF

From till


From till Wind 110º 10kt. Visibility 10km or more. Broken Clouds 1100ft. Broken Clouds 3300ft.
Temporarly from till Wind 70º 8kt. Visibility 3100m. Mist .

Ham: TAF UARR 091400Z 0915/0924 11005MPS 9999 BKN011 BKN033CB TEMPO 0918/0924 07004MPS 3100 BR

51.15°K 51.54°D için radar ve yağış nowcast

Çise
Hafif
Orta
Ağır
Çok ağır
Selamlamak

Konum işaretleyicisi 51.15°K 51.54°D üzerine yerleştirilir. Bu animasyon son saat içerisindeki yağış radarını ve 1h tahminini gösterir. Hafif yağmur veya kar yağışı radar için görünmez olabilir. Yağış şiddeti açık mavi ile koyu mor arasındaki renklerle kodlanmıştır.

51.15°K 51.54°D için şu anki uydu ve yağmur görüntüleri

Konum işaretleyici 51.15°K 51.54°D üzerine yerleştirilir. [Daha fazla]

Gerçek zamanlı uydu görüntüsü gündüz süresince görülür ışığı gece süresince kızılötesi ışınım ile birleştirir. Gece kızılötesi ışınım sıcaklık farklarını algılayabildiğinden dolayı görüntü karanlık değildir. Ancak düşük bulutları ve sisi yer sıcaklığından ayırmak zordur ve bu nedenle gece boyunca neredeyse görünmez olabilirler. Avrupa için Meteosat uydu görüntüleri gerçek zamanlı olarak her 5 dakikada bir güncellenir. GOES-16/GOES-17 (Kuzey ve Güney Amerika) ve Himawari (Asya) görüntüleri her 10 dakikada bir güncellenir.

Copyright 2021 EUMETSAT / meteoblue. / Copyright 2021 meteoblue